| time (UTC) | temp F | wind direction | speed MPH | gust MPH | rain 1hr in | rain 24hr in | rain mn in | humidity % | barometer mb |
| 20260510060536 | 51 | 329 | 0.0 | 0.0 | 0.00 | 0.12 | 0.00 | 92 | 1011.4 |
| 20260510060038 | 51 | 22 | 0.0 | 0.0 | 0.00 | 0.12 | 0.00 | 92 | 1011.0 |
| 20260510055535 | 51 | 360 | 0.0 | 0.0 | 0.00 | 0.12 | 0.00 | 92 | 1011.1 |
| 20260510055035 | 51 | 360 | 0.0 | 0.0 | 0.00 | 0.12 | 0.00 | 92 | 1011.1 |
| 20260510054535 | 51 | 360 | 0.0 | 0.0 | 0.00 | 0.12 | 0.00 | 92 | 1011.2 |
| 20260510054035 | 51 | 360 | 0.0 | 0.0 | 0.00 | 0.12 | 0.00 | 92 | 1011.3 |
| 20260510053534 | 51 | 360 | 0.0 | 0.0 | 0.00 | 0.12 | 0.00 | 92 | 1011.5 |
| 20260510053034 | 51 | 360 | 0.0 | 0.0 | 0.00 | 0.12 | 0.00 | 92 | 1011.5 |
| 20260510052533 | 51 | 360 | 0.0 | 0.0 | 0.00 | 0.12 | 0.00 | 92 | 1011.5 |
| 20260510052033 | 51 | 360 | 0.0 | 0.0 | 0.00 | 0.12 | 0.00 | 92 | 1011.6 |
| 20260510051540 | 51 | 360 | 0.0 | 0.0 | 0.00 | 0.12 | 0.00 | 92 | 1011.6 |
| 20260510051032 | 51 | 65 | 0.0 | 0.0 | 0.00 | 0.12 | 0.00 | 92 | 1011.6 |
| 20260510050532 | 51 | 65 | 0.0 | 0.0 | 0.00 | 0.12 | 0.00 | 92 | 1011.5 |
| 20260510050038 | 51 | 67 | 0.0 | 0.0 | 0.00 | 0.12 | 0.00 | 92 | 1011.4 |
| 20260510045529 | 51 | 67 | 0.0 | 0.0 | 0.00 | 0.12 | 0.00 | 92 | 1011.1 |
| 20260510045029 | 51 | 68 | 0.0 | 0.0 | 0.00 | 0.12 | 0.00 | 92 | 1011.0 |
| 20260510044530 | 52 | 69 | 0.0 | 0.0 | 0.00 | 0.12 | 0.00 | 92 | 1010.9 |
| 20260510044027 | 52 | 69 | 0.0 | 0.0 | 0.00 | 0.12 | 0.00 | 92 | 1010.9 |
| 20260510043527 | 52 | 72 | 0.0 | 0.0 | 0.00 | 0.12 | 0.00 | 91 | 1011.0 |
| 20260510043026 | 52 | 72 | 0.0 | 0.0 | 0.00 | 0.12 | 0.00 | 91 | 1011.0 |
| 20260510042525 | 52 | 72 | 0.0 | 0.0 | 0.00 | 0.12 | 0.00 | 91 | 1010.9 |
| 20260510042026 | 52 | 82 | 0.0 | 0.0 | 0.00 | 0.12 | 0.00 | 91 | 1010.8 |
| 20260510041524 | 52 | 104 | 0.0 | 0.0 | 0.00 | 0.12 | 0.00 | 91 | 1010.9 |
| 20260510041024 | 52 | 104 | 0.0 | 0.0 | 0.00 | 0.12 | 0.12 | 91 | 1010.8 |
| 20260510040524 | 52 | 105 | 0.0 | 0.0 | 0.00 | 0.12 | 0.12 | 90 | 1010.9 |
| 20260510040024 | 52 | 105 | 0.0 | 0.0 | 0.00 | 0.12 | 0.12 | 90 | 1010.9 |
| 20260510035524 | 53 | 105 | 0.0 | 0.0 | 0.00 | 0.12 | 0.12 | 90 | 1010.8 |
| 20260510035024 | 53 | 105 | 0.0 | 0.0 | 0.00 | 0.12 | 0.12 | 90 | 1011.0 |
| 20260510034523 | 53 | 105 | 0.0 | 0.0 | 0.00 | 0.12 | 0.12 | 90 | 1010.9 |
| 20260510034026 | 53 | 109 | 0.0 | 0.0 | 0.00 | 0.12 | 0.12 | 90 | 1010.9 |
| 20260510033523 | 54 | 109 | 0.0 | 0.0 | 0.00 | 0.12 | 0.12 | 89 | 1010.9 |
| 20260510033025 | 54 | 109 | 0.0 | 0.0 | 0.00 | 0.12 | 0.12 | 90 | 1010.9 |
| 20260510032523 | 54 | 109 | 0.0 | 0.0 | 0.00 | 0.12 | 0.12 | 90 | 1011.0 |
| 20260510032023 | 54 | 109 | 0.0 | 0.0 | 0.00 | 0.12 | 0.12 | 89 | 1011.0 |
| 20260510031524 | 54 | 109 | 0.0 | 0.0 | 0.00 | 0.12 | 0.12 | 89 | 1011.0 |
| 20260510031023 | 54 | 110 | 0.0 | 0.0 | 0.00 | 0.12 | 0.12 | 89 | 1010.9 |
| 20260510030527 | 54 | 110 | 0.0 | 0.0 | 0.00 | 0.12 | 0.12 | 89 | 1010.8 |
| 20260510030023 | 54 | 111 | 0.0 | 0.0 | 0.00 | 0.12 | 0.12 | 89 | 1010.8 |
| 20260510025523 | 54 | 111 | 0.0 | 0.0 | 0.00 | 0.12 | 0.12 | 89 | 1010.9 |
| 20260510025025 | 54 | 111 | 0.0 | 0.0 | 0.00 | 0.12 | 0.12 | 88 | 1010.9 |
| 20260510024523 | 54 | 111 | 0.0 | 0.0 | 0.00 | 0.12 | 0.12 | 88 | 1010.8 |
| 20260510024023 | 55 | 111 | 0.0 | 0.0 | 0.00 | 0.12 | 0.12 | 87 | 1010.8 |
| 20260510023521 | 55 | 111 | 0.0 | 0.0 | 0.00 | 0.12 | 0.12 | 87 | 1010.8 |
| 20260510023021 | 55 | 111 | 0.0 | 0.0 | 0.00 | 0.12 | 0.12 | 87 | 1010.8 |
| 20260510022521 | 55 | 111 | 0.0 | 0.0 | 0.00 | 0.12 | 0.12 | 87 | 1010.7 |
| 20260510022021 | 55 | 111 | 0.0 | 0.0 | 0.00 | 0.12 | 0.12 | 87 | 1010.7 |
| 20260510021521 | 55 | 111 | 0.0 | 0.0 | 0.00 | 0.12 | 0.12 | 86 | 1010.8 |
| 20260510021022 | 56 | 111 | 0.0 | 0.0 | 0.00 | 0.12 | 0.12 | 86 | 1010.7 |
| 20260510020521 | 56 | 111 | 0.0 | 0.0 | 0.00 | 0.12 | 0.12 | 85 | 1010.7 |
| 20260510020021 | 56 | 111 | 0.0 | 0.0 | 0.00 | 0.12 | 0.12 | 86 | 1010.5 |
| 20260510015521 | 56 | 111 | 0.0 | 0.0 | 0.00 | 0.12 | 0.12 | 85 | 1010.4 |
| 20260510015020 | 56 | 112 | 0.0 | 0.0 | 0.00 | 0.12 | 0.12 | 85 | 1010.4 |
| 20260510014523 | 57 | 112 | 0.0 | 0.0 | 0.00 | 0.12 | 0.12 | 84 | 1010.4 |
| 20260510014020 | 57 | 111 | 0.0 | 0.0 | 0.00 | 0.12 | 0.12 | 84 | 1010.2 |
| 20260510013520 | 57 | 113 | 0.0 | 0.0 | 0.00 | 0.12 | 0.12 | 84 | 1010.2 |
| 20260510013020 | 57 | 114 | 0.0 | 0.0 | 0.00 | 0.12 | 0.12 | 83 | 1010.3 |
| 20260510012520 | 57 | 115 | 0.0 | 0.0 | 0.00 | 0.12 | 0.12 | 83 | 1010.1 |
| 20260510012020 | 58 | 115 | 0.0 | 0.0 | 0.00 | 0.12 | 0.12 | 82 | 1010.1 |
| 20260510011532 | 58 | 117 | 0.0 | 0.0 | 0.00 | 0.12 | 0.12 | 82 | 1010.1 |
| 20260510011019 | 58 | 120 | 0.0 | 0.0 | 0.00 | 0.12 | 0.12 | 83 | 1010.0 |
| 20260510010519 | 58 | 122 | 0.0 | 0.0 | 0.00 | 0.12 | 0.12 | 82 | 1010.0 |
| 20260510010026 | 58 | 122 | 0.0 | 0.0 | 0.00 | 0.12 | 0.12 | 82 | 1009.9 |
| 20260510005519 | 59 | 123 | 0.0 | 0.0 | 0.00 | 0.12 | 0.12 | 80 | 1009.8 |
| 20260510005020 | 59 | 123 | 0.0 | 0.0 | 0.00 | 0.12 | 0.12 | 79 | 1009.8 |
| 20260510004518 | 59 | 127 | 0.0 | 0.0 | 0.00 | 0.12 | 0.12 | 79 | 1009.7 |
| 20260510004022 | 59 | 132 | 0.0 | 0.0 | 0.00 | 0.12 | 0.12 | 78 | 1009.8 |
| 20260510003518 | 59 | 132 | 0.0 | 0.0 | 0.00 | 0.12 | 0.12 | 78 | 1009.8 |
| 20260510003018 | 59 | 132 | 0.0 | 0.0 | 0.00 | 0.12 | 0.12 | 78 | 1009.8 |
| 20260510002517 | 59 | 123 | 0.0 | 0.0 | 0.00 | 0.12 | 0.12 | 78 | 1009.8 |
| 20260510002017 | 60 | 122 | 0.0 | 0.0 | 0.00 | 0.12 | 0.12 | 78 | 1009.7 |
| 20260510001523 | 60 | 121 | 0.0 | 0.0 | 0.00 | 0.12 | 0.12 | 77 | 1009.6 |
| 20260510001018 | 60 | 121 | 0.0 | 0.0 | 0.00 | 0.12 | 0.12 | 77 | 1009.5 |
| 20260510000518 | 60 | 121 | 0.0 | 0.0 | 0.00 | 0.12 | 0.12 | 76 | 1009.3 |
| 20260510000017 | 61 | 121 | 0.0 | 0.0 | 0.00 | 0.12 | 0.12 | 76 | 1009.2 |
| 20260509235518 | 61 | 122 | 0.0 | 0.0 | 0.00 | 0.12 | 0.12 | 76 | 1009.3 |
| 20260509235017 | 61 | 126 | 0.0 | 0.0 | 0.00 | 0.12 | 0.12 | 76 | 1009.3 |
| 20260509234516 | 61 | 124 | 0.0 | 0.0 | 0.00 | 0.12 | 0.12 | 76 | 1009.3 |
| 20260509234016 | 61 | 130 | 0.0 | 0.0 | 0.00 | 0.12 | 0.12 | 76 | 1009.4 |
| 20260509233517 | 61 | 134 | 0.0 | 0.0 | 0.00 | 0.12 | 0.12 | 75 | 1009.3 |
| 20260509233015 | 61 | 142 | 0.0 | 0.0 | 0.00 | 0.12 | 0.12 | 75 | 1009.3 |
| 20260509232516 | 61 | 150 | 0.0 | 0.0 | 0.00 | 0.12 | 0.12 | 75 | 1009.2 |
| 20260509232016 | 61 | 155 | 0.0 | 0.0 | 0.00 | 0.12 | 0.12 | 75 | 1009.2 |
| 20260509231526 | 61 | 147 | 0.0 | 3.0 | 0.00 | 0.12 | 0.12 | 75 | 1009.2 |
| 20260509231014 | 61 | 154 | 0.0 | 7.0 | 0.00 | 0.12 | 0.12 | 74 | 1009.2 |
| 20260509230515 | 61 | 155 | 2.0 | 7.0 | 0.00 | 0.12 | 0.12 | 74 | 1009.2 |
| 20260509230015 | 61 | 144 | 1.0 | 5.0 | 0.00 | 0.12 | 0.12 | 74 | 1009.2 |
| 20260509225517 | 61 | 138 | 1.0 | 4.0 | 0.00 | 0.12 | 0.12 | 74 | 1009.3 |
| 20260509225014 | 61 | 154 | 0.0 | 6.0 | 0.00 | 0.12 | 0.12 | 75 | 1009.2 |
| 20260509224514 | 61 | 164 | 1.0 | 6.0 | 0.00 | 0.12 | 0.12 | 74 | 1009.3 |
| 20260509224014 | 61 | 148 | 2.0 | 5.0 | 0.00 | 0.12 | 0.12 | 74 | 1009.2 |
| 20260509223513 | 61 | 192 | 0.0 | 2.0 | 0.00 | 0.12 | 0.12 | 74 | 1009.3 |
| 20260509223015 | 61 | 192 | 0.0 | 4.0 | 0.00 | 0.12 | 0.12 | 74 | 1009.3 |
| 20260509222511 | 61 | 178 | 2.0 | 5.0 | 0.00 | 0.12 | 0.12 | 73 | 1009.3 |
| 20260509222011 | 61 | 182 | 0.0 | 3.0 | 0.00 | 0.12 | 0.12 | 74 | 1009.3 |
| 20260509221526 | 61 | 144 | 0.0 | 5.0 | 0.00 | 0.12 | 0.12 | 75 | 1009.3 |
| 20260509221011 | 61 | 143 | 0.0 | 5.0 | 0.00 | 0.12 | 0.12 | 75 | 1009.2 |
| 20260509220510 | 61 | 113 | 1.0 | 6.0 | 0.00 | 0.12 | 0.12 | 75 | 1009.3 |
| 20260509220012 | 61 | 164 | 0.0 | 2.0 | 0.00 | 0.12 | 0.12 | 76 | 1009.3 |
| 20260509215509 | 61 | 171 | 0.0 | 3.0 | 0.00 | 0.12 | 0.12 | 75 | 1009.3 |
| 20260509215008 | 61 | 170 | 0.0 | 3.0 | 0.00 | 0.12 | 0.12 | 76 | 1009.5 |
| 20260509214507 | 60 | 182 | 0.0 | 3.0 | 0.00 | 0.12 | 0.12 | 77 | 1009.6 |
| 20260509214006 | 60 | 185 | 0.0 | 4.0 | 0.00 | 0.12 | 0.12 | 78 | 1009.6 |
| 20260509213506 | 60 | 185 | 2.0 | 4.0 | 0.00 | 0.12 | 0.12 | 77 | 1009.6 |
| 20260509213006 | 60 | 152 | 1.0 | 4.0 | 0.00 | 0.12 | 0.12 | 79 | 1009.6 |
| 20260509212505 | 60 | 127 | 0.0 | 4.0 | 0.00 | 0.12 | 0.12 | 79 | 1009.7 |
| 20260509212007 | 60 | 98 | 0.0 | 0.0 | 0.00 | 0.12 | 0.12 | 79 | 1009.7 |
| 20260509211504 | 60 | 106 | 0.0 | 0.0 | 0.00 | 0.12 | 0.12 | 81 | 1009.8 |
| 20260509211002 | 59 | 63 | 0.0 | 0.0 | 0.00 | 0.12 | 0.12 | 81 | 1009.9 |
| 20260509210502 | 59 | 62 | 0.0 | 0.0 | 0.00 | 0.12 | 0.12 | 81 | 1009.9 |
| 20260509210002 | 59 | 21 | 0.0 | 0.0 | 0.00 | 0.12 | 0.12 | 82 | 1010.0 |
| 20260509205500 | 59 | 14 | 0.0 | 0.0 | 0.00 | 0.12 | 0.12 | 81 | 1010.1 |
| 20260509205002 | 58 | 14 | 0.0 | 0.0 | 0.00 | 0.12 | 0.12 | 81 | 1010.1 |
| 20260509204603 | 59 | 12 | 0.0 | 0.0 | 0.00 | 0.12 | 0.12 | 81 | 1010.2 |
| 20260509204101 | 59 | 17 | 0.0 | 0.0 | 0.00 | 0.12 | 0.12 | 80 | 1010.3 |
| 20260509203601 | 59 | 40 | 0.0 | 0.0 | 0.00 | 0.12 | 0.12 | 81 | 1010.3 |
| 20260509203101 | 58 | 51 | 0.0 | 0.0 | 0.00 | 0.12 | 0.12 | 81 | 1010.3 |
| 20260509202603 | 58 | 53 | 0.0 | 0.0 | 0.00 | 0.12 | 0.12 | 81 | 1010.2 |
| 20260509202100 | 58 | 53 | 0.0 | 0.0 | 0.00 | 0.12 | 0.12 | 81 | 1010.1 |
| 20260509201600 | 58 | 62 | 0.0 | 0.0 | 0.00 | 0.12 | 0.12 | 81 | 1009.8 |
| 20260509201059 | 58 | 71 | 0.0 | 0.0 | 0.00 | 0.12 | 0.12 | 81 | 1009.7 |
| 20260509200558 | 59 | 58 | 0.0 | 0.0 | 0.00 | 0.12 | 0.12 | 81 | 1009.9 |
| 20260509200106 | 59 | 73 | 0.0 | 0.0 | 0.00 | 0.12 | 0.12 | 80 | 1010.0 |
| 20260509195559 | 59 | 136 | 0.0 | 0.0 | 0.00 | 0.12 | 0.12 | 80 | 1010.2 |
| 20260509195058 | 59 | 141 | 0.0 | 0.0 | 0.00 | 0.12 | 0.12 | 80 | 1010.3 |
| 20260509194557 | 59 | 144 | 0.0 | 0.0 | 0.00 | 0.12 | 0.12 | 79 | 1010.3 |
| 20260509194055 | 59 | 145 | 0.0 | 0.0 | 0.00 | 0.12 | 0.12 | 80 | 1010.3 |
| 20260509193559 | 59 | 145 | 0.0 | 0.0 | 0.00 | 0.12 | 0.12 | 80 | 1010.3 |
| 20260509193108 | 59 | 145 | 0.0 | 0.0 | 0.00 | 0.12 | 0.12 | 80 | 1010.3 |
| 20260509192553 | 59 | 145 | 0.0 | 0.0 | 0.00 | 0.12 | 0.12 | 80 | 1010.5 |
| 20260509192057 | 59 | 145 | 0.0 | 0.0 | 0.00 | 0.12 | 0.12 | 82 | 1010.6 |
| 20260509191611 | 58 | 143 | 0.0 | 0.0 | 0.00 | 0.12 | 0.12 | 81 | 1010.6 |
| 20260509191053 | 58 | 142 | 0.0 | 0.0 | 0.00 | 0.12 | 0.12 | 81 | 1010.7 |
| 20260509190551 | 58 | 205 | 0.0 | 0.0 | 0.00 | 0.12 | 0.12 | 85 | 1010.8 |
| 20260509190105 | 57 | 217 | 0.0 | 3.0 | 0.00 | 0.12 | 0.12 | 83 | 1010.8 |
| 20260509185549 | 57 | 216 | 0.0 | 3.0 | 0.00 | 0.12 | 0.12 | 83 | 1011.0 |
| 20260509185048 | 57 | 164 | 0.0 | 0.0 | 0.00 | 0.12 | 0.12 | 85 | 1011.1 |
| 20260509184549 | 57 | 157 | 0.0 | 0.0 | 0.00 | 0.12 | 0.12 | 85 | 1011.3 |
| 20260509184048 | 57 | 155 | 0.0 | 0.0 | 0.00 | 0.12 | 0.12 | 87 | 1011.1 |
| 20260509183548 | 56 | 177 | 0.0 | 0.0 | 0.00 | 0.12 | 0.12 | 86 | 1011.1 |
| 20260509183047 | 56 | 156 | 0.0 | 0.0 | 0.00 | 0.12 | 0.12 | 88 | 1011.0 |
| 20260509182546 | 56 | 144 | 0.0 | 0.0 | 0.00 | 0.12 | 0.12 | 87 | 1011.0 |
| 20260509182045 | 56 | 138 | 0.0 | 0.0 | 0.00 | 0.12 | 0.12 | 89 | 1011.0 |
| 20260509181544 | 55 | 122 | 0.0 | 0.0 | 0.00 | 0.12 | 0.12 | 89 | 1011.0 |
| 20260509181044 | 55 | 113 | 0.0 | 0.0 | 0.00 | 0.12 | 0.12 | 89 | 1011.0 |
| 20260509180544 | 55 | 120 | 0.0 | 0.0 | 0.00 | 0.12 | 0.12 | 89 | 1011.0 |
| 20260509180043 | 54 | 144 | 0.0 | 0.0 | 0.00 | 0.12 | 0.12 | 89 | 1011.1 |
| 20260509175542 | 54 | 179 | 0.0 | 0.0 | 0.00 | 0.12 | 0.12 | 89 | 1011.2 |
| 20260509175043 | 54 | 183 | 0.0 | 0.0 | 0.00 | 0.12 | 0.12 | 89 | 1011.2 |
| 20260509174543 | 54 | 188 | 0.0 | 0.0 | 0.00 | 0.12 | 0.12 | 89 | 1011.3 |
| 20260509174042 | 54 | 188 | 0.0 | 0.0 | 0.00 | 0.12 | 0.12 | 89 | 1011.4 |
| 20260509173542 | 54 | 188 | 0.0 | 0.0 | 0.00 | 0.12 | 0.12 | 89 | 1011.5 |
| 20260509173054 | 54 | 186 | 0.0 | 0.0 | 0.00 | 0.12 | 0.12 | 89 | 1011.5 |
| 20260509172544 | 54 | 178 | 0.0 | 0.0 | 0.00 | 0.12 | 0.12 | 90 | 1011.6 |
| 20260509172041 | 53 | 154 | 0.0 | 0.0 | 0.00 | 0.12 | 0.12 | 90 | 1011.6 |
| 20260509171551 | 53 | 196 | 0.0 | 1.0 | 0.01 | 0.12 | 0.12 | 90 | 1011.7 |
| 20260509171041 | 53 | 200 | 0.0 | 1.0 | 0.01 | 0.12 | 0.12 | 90 | 1011.9 |
| 20260509170541 | 53 | 156 | 0.0 | 8.0 | 0.01 | 0.12 | 0.12 | 90 | 1011.8 |
| 20260509170044 | 53 | 174 | 0.0 | 8.0 | 0.01 | 0.12 | 0.12 | 90 | 1011.9 |
| 20260509165540 | 53 | 191 | 0.0 | 0.0 | 0.02 | 0.12 | 0.12 | 91 | 1011.7 |
| 20260509165041 | 53 | 200 | 0.0 | 0.0 | 0.03 | 0.12 | 0.12 | 91 | 1011.7 |
| 20260509164548 | 53 | 130 | 0.0 | 0.0 | 0.04 | 0.12 | 0.12 | 91 | 1011.6 |
| 20260509164042 | 52 | 122 | 0.0 | 0.0 | 0.05 | 0.12 | 0.12 | 90 | 1011.6 |
| 20260509163539 | 52 | 84 | 0.0 | 0.0 | 0.06 | 0.12 | 0.12 | 90 | 1011.4 |
| 20260509163048 | 52 | 84 | 0.0 | 0.0 | 0.07 | 0.12 | 0.12 | 90 | 1011.3 |
| 20260509162543 | 52 | 64 | 0.0 | 0.0 | 0.09 | 0.12 | 0.12 | 90 | 1011.4 |
| 20260509162039 | 52 | 59 | 0.0 | 0.0 | 0.11 | 0.12 | 0.12 | 90 | 1011.4 |
| 20260509161540 | 52 | 50 | 0.0 | 0.0 | 0.11 | 0.11 | 0.11 | 90 | 1011.2 |
| 20260509161039 | 52 | 49 | 0.0 | 0.0 | 0.11 | 0.11 | 0.11 | 89 | 1011.1 |
| 20260509160539 | 52 | 30 | 0.0 | 0.0 | 0.11 | 0.11 | 0.11 | 89 | 1011.2 |
| 20260509160039 | 53 | 27 | 0.0 | 0.0 | 0.11 | 0.11 | 0.11 | 89 | 1011.3 |
| 20260509155538 | 53 | 5 | 0.0 | 0.0 | 0.10 | 0.10 | 0.10 | 88 | 1011.5 |
| 20260509155038 | 53 | 206 | 0.0 | 0.0 | 0.09 | 0.09 | 0.09 | 87 | 1011.7 |
| 20260509154540 | 52 | 211 | 0.0 | 0.0 | 0.07 | 0.07 | 0.07 | 87 | 1012.0 |
| 20260509154037 | 52 | 211 | 0.0 | 0.0 | 0.07 | 0.07 | 0.07 | 86 | 1012.2 |
| 20260509153540 | 53 | 211 | 0.0 | 0.0 | 0.06 | 0.06 | 0.06 | 86 | 1012.4 |
| 20260509153039 | 53 | 213 | 0.0 | 0.0 | 0.05 | 0.05 | 0.05 | 86 | 1012.5 |
| 20260509152536 | 53 | 215 | 0.0 | 0.0 | 0.02 | 0.02 | 0.02 | 85 | 1012.6 |
| 20260509152038 | 53 | 219 | 0.0 | 0.0 | 0.01 | 0.01 | 0.01 | 85 | 1012.6 |
| 20260509151536 | 53 | 207 | 0.0 | 0.0 | 0.00 | 0.00 | 0.00 | 85 | 1012.5 |
| 20260509151035 | 54 | 200 | 0.0 | 0.0 | 0.00 | 0.00 | 0.00 | 84 | 1012.4 |
| 20260509150536 | 54 | 198 | 0.0 | 6.0 | 0.00 | 0.00 | 0.00 | 84 | 1012.3 |
| 20260509150034 | 54 | 202 | 0.0 | 6.0 | 0.00 | 0.00 | 0.00 | 83 | 1012.3 |
| 20260509145536 | 54 | 186 | 0.0 | 1.0 | 0.00 | 0.00 | 0.00 | 83 | 1012.3 |
| 20260509145034 | 54 | 167 | 0.0 | 1.0 | 0.00 | 0.00 | 0.00 | 82 | 1012.2 |
| 20260509144537 | 54 | 199 | 0.0 | 0.0 | 0.00 | 0.00 | 0.00 | 81 | 1012.2 |
| 20260509144033 | 55 | 212 | 0.0 | 0.0 | 0.00 | 0.00 | 0.00 | 81 | 1012.2 |
| 20260509143533 | 55 | 214 | 0.0 | 0.0 | 0.00 | 0.00 | 0.00 | 80 | 1012.1 |
| 20260509143033 | 55 | 217 | 0.0 | 0.0 | 0.00 | 0.00 | 0.00 | 79 | 1012.1 |
| 20260509142532 | 55 | 223 | 0.0 | 0.0 | 0.00 | 0.00 | 0.00 | 79 | 1012.0 |
| 20260509142032 | 55 | 232 | 0.0 | 0.0 | 0.00 | 0.00 | 0.00 | 80 | 1012.0 |
| 20260509141536 | 54 | 176 | 0.0 | 0.0 | 0.00 | 0.00 | 0.00 | 81 | 1012.0 |
| 20260509141032 | 54 | 177 | 0.0 | 0.0 | 0.00 | 0.00 | 0.00 | 82 | 1012.0 |
| 20260509140532 | 54 | 179 | 0.0 | 0.0 | 0.00 | 0.00 | 0.00 | 81 | 1011.9 |
| 20260509140036 | 54 | 182 | 0.0 | 0.0 | 0.00 | 0.00 | 0.00 | 82 | 1011.8 |
| 20260509135532 | 54 | 192 | 0.0 | 0.0 | 0.00 | 0.00 | 0.00 | 81 | 1011.8 |
| 20260509135034 | 54 | 184 | 0.0 | 0.0 | 0.00 | 0.00 | 0.00 | 83 | 1011.8 |
| 20260509134547 | 53 | 165 | 0.0 | 0.0 | 0.00 | 0.00 | 0.00 | 84 | 1011.8 |
| 20260509134035 | 53 | 163 | 0.0 | 0.0 | 0.00 | 0.00 | 0.00 | 84 | 1011.6 |
| 20260509133534 | 53 | 165 | 0.0 | 0.0 | 0.00 | 0.00 | 0.00 | 84 | 1011.8 |
| 20260509133035 | 53 | 167 | 0.0 | 0.0 | 0.00 | 0.00 | 0.00 | 84 | 1011.9 |
| 20260509132531 | 53 | 167 | 0.0 | 0.0 | 0.00 | 0.00 | 0.00 | 84 | 1011.8 |
| 20260509132033 | 53 | 169 | 0.0 | 0.0 | 0.00 | 0.00 | 0.00 | 84 | 1011.8 |
| 20260509131551 | 53 | 175 | 0.0 | 0.0 | 0.00 | 0.00 | 0.00 | 84 | 1011.7 |
| 20260509131030 | 53 | 180 | 0.0 | 0.0 | 0.00 | 0.00 | 0.00 | 85 | 1011.7 |
| 20260509130533 | 53 | 61 | 0.0 | 0.0 | 0.00 | 0.00 | 0.00 | 84 | 1011.4 |
| 20260509130043 | 53 | 49 | 0.0 | 0.0 | 0.00 | 0.00 | 0.00 | 84 | 1011.2 |
| 20260509125530 | 53 | 109 | 0.0 | 0.0 | 0.00 | 0.00 | 0.00 | 84 | 1011.5 |
| 20260509125031 | 53 | 112 | 0.0 | 0.0 | 0.00 | 0.00 | 0.00 | 83 | 1011.5 |
| 20260509124539 | 53 | 51 | 0.0 | 0.0 | 0.00 | 0.00 | 0.00 | 83 | 1011.3 |
| 20260509124029 | 53 | 355 | 0.0 | 0.0 | 0.00 | 0.00 | 0.00 | 82 | 1011.3 |
| 20260509123529 | 53 | 355 | 0.0 | 0.0 | 0.00 | 0.00 | 0.00 | 82 | 1011.4 |
| 20260509123031 | 53 | 360 | 0.0 | 0.0 | 0.00 | 0.00 | 0.00 | 82 | 1011.5 |
| 20260509122529 | 53 | 9 | 0.0 | 0.0 | 0.00 | 0.00 | 0.00 | 81 | 1011.5 |
| 20260509122027 | 53 | 9 | 0.0 | 0.0 | 0.00 | 0.00 | 0.00 | 82 | 1011.7 |
| 20260509121531 | 52 | 10 | 0.0 | 0.0 | 0.00 | 0.00 | 0.00 | 82 | 1011.6 |
| 20260509121028 | 52 | 13 | 0.0 | 0.0 | 0.00 | 0.00 | 0.00 | 82 | 1011.5 |
| 20260509120530 | 52 | 24 | 0.0 | 0.0 | 0.00 | 0.00 | 0.00 | 81 | 1011.6 |
| 20260509120028 | 52 | 24 | 0.0 | 0.0 | 0.00 | 0.00 | 0.00 | 81 | 1011.5 |
| 20260509115527 | 52 | 22 | 0.0 | 0.0 | 0.00 | 0.00 | 0.00 | 82 | 1011.5 |
| 20260509115027 | 52 | 22 | 0.0 | 0.0 | 0.00 | 0.00 | 0.00 | 81 | 1011.4 |
| 20260509114527 | 52 | 42 | 0.0 | 0.0 | 0.00 | 0.00 | 0.00 | 81 | 1011.3 |
| 20260509114026 | 52 | 48 | 0.0 | 0.0 | 0.00 | 0.00 | 0.00 | 81 | 1011.2 |
| 20260509113528 | 52 | 48 | 0.0 | 0.0 | 0.00 | 0.00 | 0.00 | 81 | 1011.2 |
| 20260509113026 | 52 | 48 | 0.0 | 0.0 | 0.00 | 0.00 | 0.00 | 81 | 1011.2 |
| 20260509112525 | 52 | 48 | 0.0 | 0.0 | 0.00 | 0.00 | 0.00 | 81 | 1011.2 |
| 20260509112025 | 52 | 48 | 0.0 | 0.0 | 0.00 | 0.00 | 0.00 | 81 | 1011.2 |
| 20260509111526 | 52 | 48 | 0.0 | 0.0 | 0.00 | 0.00 | 0.00 | 81 | 1011.3 |
| 20260509111026 | 51 | 48 | 0.0 | 0.0 | 0.00 | 0.00 | 0.00 | 81 | 1011.3 |
| 20260509110528 | 51 | 48 | 0.0 | 0.0 | 0.00 | 0.00 | 0.00 | 81 | 1011.2 |
| 20260509110027 | 51 | 48 | 0.0 | 0.0 | 0.00 | 0.00 | 0.00 | 81 | 1011.0 |
| 20260509105525 | 51 | 47 | 0.0 | 0.0 | 0.00 | 0.00 | 0.00 | 80 | 1011.1 |
| 20260509105026 | 51 | 47 | 0.0 | 0.0 | 0.00 | 0.00 | 0.00 | 80 | 1011.0 |
| 20260509104524 | 51 | 47 | 0.0 | 0.0 | 0.00 | 0.00 | 0.00 | 80 | 1011.1 |
| 20260509104025 | 51 | 47 | 0.0 | 0.0 | 0.00 | 0.00 | 0.00 | 80 | 1011.0 |
| 20260509103523 | 51 | 47 | 0.0 | 0.0 | 0.00 | 0.00 | 0.00 | 80 | 1011.0 |
| 20260509103028 | 51 | 47 | 0.0 | 0.0 | 0.00 | 0.00 | 0.00 | 80 | 1010.9 |
| 20260509102527 | 51 | 47 | 0.0 | 0.0 | 0.00 | 0.00 | 0.00 | 80 | 1010.9 |
| 20260509102023 | 51 | 47 | 0.0 | 0.0 | 0.00 | 0.00 | 0.00 | 80 | 1010.8 |
| 20260509101524 | 51 | 47 | 0.0 | 0.0 | 0.00 | 0.00 | 0.00 | 79 | 1010.9 |
| 20260509101025 | 51 | 47 | 0.0 | 0.0 | 0.00 | 0.00 | 0.00 | 79 | 1010.9 |
| 20260509100525 | 52 | 47 | 0.0 | 0.0 | 0.00 | 0.00 | 0.00 | 79 | 1010.9 |
| 20260509100022 | 52 | 47 | 0.0 | 0.0 | 0.00 | 0.00 | 0.00 | 79 | 1010.8 |
| 20260509095521 | 52 | 47 | 0.0 | 0.0 | 0.00 | 0.00 | 0.00 | 79 | 1010.8 |
| 20260509095022 | 52 | 47 | 0.0 | 0.0 | 0.00 | 0.00 | 0.00 | 78 | 1010.7 |
| 20260509094521 | 52 | 52 | 0.0 | 0.0 | 0.00 | 0.00 | 0.00 | 78 | 1010.6 |
| 20260509094019 | 52 | 51 | 0.0 | 0.0 | 0.00 | 0.00 | 0.00 | 78 | 1010.7 |
| 20260509093519 | 52 | 360 | 0.0 | 0.0 | 0.00 | 0.00 | 0.00 | 77 | 1010.9 |
| 20260509093025 | 52 | 74 | 0.0 | 0.0 | 0.00 | 0.00 | 0.00 | 77 | 1010.9 |
| 20260509092518 | 52 | 74 | 0.0 | 0.0 | 0.00 | 0.00 | 0.00 | 77 | 1011.0 |
| 20260509092018 | 52 | 74 | 0.0 | 0.0 | 0.00 | 0.00 | 0.00 | 78 | 1011.0 |
| 20260509091518 | 52 | 74 | 0.0 | 0.0 | 0.00 | 0.00 | 0.00 | 78 | 1010.9 |
| 20260509091019 | 52 | 74 | 0.0 | 0.0 | 0.00 | 0.00 | 0.00 | 77 | 1011.0 |
| 20260509090518 | 52 | 74 | 0.0 | 0.0 | 0.00 | 0.00 | 0.00 | 77 | 1010.9 |
| 20260509090016 | 52 | 72 | 0.0 | 0.0 | 0.00 | 0.00 | 0.00 | 77 | 1010.9 |
| 20260509085517 | 52 | 74 | 0.0 | 0.0 | 0.00 | 0.00 | 0.00 | 77 | 1011.0 |
| 20260509085016 | 52 | 80 | 0.0 | 0.0 | 0.00 | 0.00 | 0.00 | 77 | 1011.0 |
| 20260509084516 | 52 | 80 | 0.0 | 0.0 | 0.00 | 0.00 | 0.00 | 77 | 1011.0 |
| 20260509084015 | 52 | 69 | 0.0 | 0.0 | 0.00 | 0.00 | 0.00 | 77 | 1011.1 |
| 20260509083520 | 52 | 68 | 0.0 | 0.0 | 0.00 | 0.00 | 0.00 | 76 | 1011.1 |
| 20260509083015 | 52 | 79 | 0.0 | 0.0 | 0.00 | 0.00 | 0.00 | 77 | 1011.1 |
| 20260509082514 | 52 | 78 | 0.0 | 0.0 | 0.00 | 0.00 | 0.00 | 76 | 1011.1 |
| 20260509082015 | 52 | 78 | 0.0 | 0.0 | 0.00 | 0.00 | 0.00 | 76 | 1011.2 |
| 20260509081524 | 52 | 75 | 0.0 | 0.0 | 0.00 | 0.00 | 0.00 | 76 | 1011.2 |
| 20260509081019 | 52 | 61 | 0.0 | 0.0 | 0.00 | 0.00 | 0.00 | 77 | 1011.3 |
| 20260509080512 | 52 | 59 | 0.0 | 0.0 | 0.00 | 0.00 | 0.00 | 77 | 1011.3 |
| 20260509080012 | 52 | 59 | 0.0 | 0.0 | 0.00 | 0.00 | 0.00 | 76 | 1011.4 |
| 20260509075515 | 52 | 59 | 0.0 | 0.0 | 0.00 | 0.00 | 0.00 | 76 | 1011.4 |
| 20260509075012 | 52 | 60 | 0.0 | 0.0 | 0.00 | 0.00 | 0.00 | 76 | 1011.4 |
| 20260509074512 | 52 | 59 | 0.0 | 0.0 | 0.00 | 0.00 | 0.00 | 76 | 1011.3 |
| 20260509074010 | 52 | 58 | 0.0 | 0.0 | 0.00 | 0.00 | 0.00 | 76 | 1011.3 |
| 20260509073510 | 52 | 57 | 0.0 | 0.0 | 0.00 | 0.00 | 0.00 | 76 | 1011.3 |
| 20260509073010 | 52 | 44 | 0.0 | 0.0 | 0.00 | 0.00 | 0.00 | 76 | 1011.4 |
| 20260509072515 | 52 | 44 | 0.0 | 0.0 | 0.00 | 0.00 | 0.00 | 76 | 1011.5 |
| 20260509072013 | 52 | 44 | 0.0 | 0.0 | 0.00 | 0.00 | 0.00 | 75 | 1011.5 |
| 20260509071511 | 52 | 44 | 0.0 | 0.0 | 0.00 | 0.00 | 0.00 | 75 | 1011.6 |
| 20260509071008 | 52 | 44 | 0.0 | 0.0 | 0.00 | 0.00 | 0.00 | 75 | 1011.5 |
| 20260509070508 | 52 | 44 | 0.0 | 0.0 | 0.00 | 0.00 | 0.00 | 75 | 1011.7 |
| 20260509070008 | 52 | 44 | 0.0 | 0.0 | 0.00 | 0.00 | 0.00 | 75 | 1011.6 |
| 20260509065507 | 52 | 44 | 0.0 | 0.0 | 0.00 | 0.00 | 0.00 | 75 | 1011.7 |
| 20260509065009 | 52 | 44 | 0.0 | 0.0 | 0.00 | 0.00 | 0.00 | 75 | 1011.7 |
| 20260509064506 | 53 | 44 | 0.0 | 0.0 | 0.00 | 0.00 | 0.00 | 74 | 1011.8 |
| 20260509064006 | 53 | 44 | 0.0 | 0.0 | 0.00 | 0.00 | 0.00 | 75 | 1011.8 |
| 20260509063504 | 53 | 44 | 0.0 | 0.0 | 0.00 | 0.00 | 0.00 | 74 | 1011.9 |
| 20260509063005 | 53 | 44 | 0.0 | 0.0 | 0.00 | 0.00 | 0.00 | 74 | 1011.8 |
| 20260509062504 | 53 | 44 | 0.0 | 0.0 | 0.00 | 0.00 | 0.00 | 74 | 1011.8 |
| 20260509062003 | 53 | 44 | 0.0 | 0.0 | 0.00 | 0.00 | 0.00 | 74 | 1011.9 |
| 20260509061502 | 53 | 44 | 0.0 | 0.0 | 0.00 | 0.00 | 0.00 | 74 | 1011.9 |
| 20260509061002 | 53 | 44 | 0.0 | 0.0 | 0.00 | 0.00 | 0.00 | 74 | 1011.8 |